Weather History for KPGD - March, 2013

Change the Weather History Date:

Tuesday, March 5, 2013

  Actual Average Record
Temperature  
Mean Temperature 57 °F -  
Max Temperature 73 °F 76 °F 87 °F (1997)
Min Temperature 41 °F 54 °F 37 °F (1999)
Degree Days  
Heating Degree Days 8    
Growing Degree Days 7 (Base 50)    
Moisture  
Dew Point 51 °F    
Average Humidity 73    
Maximum Humidity 93    
Minimum Humidity 49    
Precipitation  
Precipitation 0.00 in - - ()
Sea Level Pressure  
Sea Level Pressure 30.16 in    
Wind  
Wind Speed 6 mph (SSW)    
Max Wind Speed 14 mph    
Max Gust Speed 23 mph    
Visibility 10 miles    
Events      
Averages and records for this station are not official NWS values.
T = Trace of Precipitation, MM = Missing Value Source: NWS Daily Summary

Daily Weather History Graph

Daily Weather History Graph

Search for Another Location

Airport or City:

Trip Planner

Search our weather history database for the weather conditions in past years. The results will help you decide how hot, cold, wet, or windy it might be!

Date:

Astronomy

Mar. 05, 2013 Rise Set
Actual Time 6:47 AM EST 6:31 PM EST
Civil Twilight 6:24 AM EST 6:54 PM EST
Nautical Twilight 5:57 AM EST 7:21 PM EST
Astronomical Twilight 5:30 AM EST 7:48 PM EST
Moon 1:35 AM EST 12:32 PM EST
Length of Visible Light 12h 30m
Length of Day
11h 43m
Last Quarter, 41% of the Moon is Illuminated
Mar 5
Last Quarter
Mar 11
New
Mar 19
First Quarter
Mar 27
Full
Apr 3
Last Quarter

Hourly Weather History & Observations

Time (EST) Temp. Windchill Dew Point Humidity Pressure Visibility Wind Dir Wind Speed Gust Speed Precip Events Conditions
12:53 AM 45.0 °F - 41.0 °F 86% 30.19 in 10.0 mi Calm Calm - N/A   Clear
2:53 AM 41.0 °F - 39.0 °F 93% 30.17 in 10.0 mi Calm Calm - N/A   Clear
4:53 AM 43.0 °F 41.3 °F 39.0 °F 86% 30.17 in 10.0 mi SE 3.5 mph - N/A   Clear
5:53 AM 45.0 °F 43.5 °F 39.9 °F 82% 30.19 in 10.0 mi SE 3.5 mph - N/A   Clear
6:53 AM 43.0 °F 40.3 °F 39.0 °F 86% 30.19 in 10.0 mi SE 4.6 mph - N/A   Clear
8:53 AM 59.0 °F - 48.9 °F 69% 30.20 in 10.0 mi SSE 3.5 mph - N/A   Clear
9:53 AM 66.9 °F - 50.0 °F 54% 30.20 in 10.0 mi SSW 9.2 mph - N/A   Clear
10:53 AM 71.1 °F - 51.1 °F 49% 30.20 in 10.0 mi WSW 11.5 mph - N/A   Clear
11:53 AM 73.0 °F - 53.1 °F 49% 30.19 in 10.0 mi WSW 12.7 mph - N/A   Clear
12:53 PM 73.0 °F - 54.0 °F 51% 30.17 in 10.0 mi WSW 13.8 mph - N/A   Clear
1:53 PM 73.9 °F - 55.0 °F 52% 30.14 in 10.0 mi WSW 13.8 mph 23.0 mph N/A   Clear
2:53 PM 73.0 °F - 54.0 °F 51% 30.13 in 10.0 mi West 13.8 mph 18.4 mph N/A   Clear
3:53 PM 72.0 °F - 55.9 °F 57% 30.14 in 10.0 mi WSW 11.5 mph - N/A   Clear
4:53 PM 70.0 °F - 57.0 °F 63% 30.14 in 10.0 mi WSW 11.5 mph - N/A   Clear
5:53 PM 68.0 °F - 57.9 °F 70% 30.15 in 10.0 mi WSW 10.4 mph - N/A   Clear
6:53 PM 64.0 °F - 57.9 °F 80% 30.14 in 10.0 mi SW 4.6 mph - N/A   Clear
7:53 PM 60.1 °F - 55.9 °F 86% 30.13 in 10.0 mi SSW 5.8 mph - N/A   Clear
8:53 PM 59.0 °F - 55.9 °F 90% 30.14 in 10.0 mi SSW 4.6 mph - N/A   Clear
9:53 PM 57.9 °F - 55.0 °F 90% 30.14 in 10.0 mi SSW 6.9 mph - N/A   Clear
10:53 PM 60.1 °F - 57.0 °F 90% 30.12 in 10.0 mi South 9.2 mph - N/A   Clear
11:53 PM 60.1 °F - 57.9 °F 93% 30.11 in 10.0 mi SW 5.8 mph - N/A   Clear